owner,sensor,date,latitude,longitude,vertical_datum,direction_of_sea_water_velocity,sea_water_speed,upward_sea_water_velocity,qcFlag 
TABS,ioos:station:wmo:42051:1,2017-02-01T00:00:00Z,29.6350,-93.6417,2.0,261.4448138,25.94870324,-99999.0,'11111222,11111222,99999999' 
TABS,ioos:station:wmo:42051:1,2017-02-01T00:30:00Z,29.6350,-93.6417,2.0,108.0071151,86.40215854,-99999.0,'11111222,11111222,99999999' 
TABS,ioos:station:wmo:42051:1,2017-02-01T01:00:00Z,29.6350,-93.6417,2.0,223.7939246,44.69197355,-99999.0,'11111222,11111222,99999999' 
TABS,ioos:station:wmo:42051:1,2017-02-01T01:30:00Z,29.6350,-93.6417,2.0,50.83905674,78.1945094,-99999.0,'11111222,11111222,99999999' 
TABS,ioos:station:wmo:42051:1,2017-02-01T02:00:00Z,29.6350,-93.6417,2.0,335.5755078,66.69924512,-99999.0,'11111222,11111222,99999999' 
TABS,ioos:station:wmo:42051:1,2017-02-01T02:30:00Z,29.6350,-93.6417,2.0,60.94658709,49.54432056,-99999.0,'11111222,11111222,99999999' 
TABS,ioos:station:wmo:42051:1,2017-02-01T03:00:00Z,29.6350,-93.6417,2.0,201.0240745,15.60912874,-99999.0,'11111222,11111222,99999999' 
TABS,ioos:station:wmo:42051:1,2017-02-01T03:30:00Z,29.6350,-93.6417,2.0,347.6837966,66.42890109,-99999.0,'11111222,11111222,99999999' 
TABS,ioos:station:wmo:42051:1,2017-02-01T04:00:00Z,29.6350,-93.6417,2.0,346.8361355,30.91232117,-99999.0,'11111222,11111222,99999999' 
TABS,ioos:station:wmo:42051:1,2017-02-01T04:30:00Z,29.6350,-93.6417,2.0,358.5584895,92.20919043,-99999.0,'11111222,11111222,99999999' 
TABS,ioos:station:wmo:42051:1,2017-02-01T05:00:00Z,29.6350,-93.6417,2.0,325.6772311,72.55366634,-99999.0,'11111222,11111222,99999999' 
TABS,ioos:station:wmo:42051:1,2017-02-01T05:30:00Z,29.6350,-93.6417,2.0,106.0550539,13.63168735,-99999.0,'11111222,11111222,99999999' 
TABS,ioos:station:wmo:42051:1,2017-02-01T06:00:00Z,29.6350,-93.6417,2.0,328.0907581,32.3130206,-99999.0,'11111222,11111222,99999999' 
TABS,ioos:station:wmo:42051:1,2017-02-01T06:30:00Z,29.6350,-93.6417,2.0,312.3533775,116.0610572,-99999.0,'11111222,11111222,99999999' 
TABS,ioos:station:wmo:42051:1,2017-02-01T07:00:00Z,29.6350,-93.6417,2.0,306.0396828,21.11021791,-99999.0,'11111222,11111222,99999999' 
TABS,ioos:station:wmo:42051:1,2017-02-01T07:30:00Z,29.6350,-93.6417,2.0,316.0457959,26.74015894,-99999.0,'11111222,11111222,99999999' 
TABS,ioos:station:wmo:42051:1,2017-02-01T08:00:00Z,29.6350,-93.6417,2.0,28.11221038,54.49942477,-99999.0,'11111222,11111222,99999999' 
TABS,ioos:station:wmo:42051:1,2017-02-01T08:30:00Z,29.6350,-93.6417,2.0,127.0248737,23.6480866,-99999.0,'11111222,11111222,99999999' 
TABS,ioos:station:wmo:42051:1,2017-02-01T09:00:00Z,29.6350,-93.6417,2.0,201.0779795,37.37044956,-99999.0,'11111222,11111222,99999999' 
TABS,ioos:station:wmo:42051:1,2017-02-01T09:30:00Z,29.6350,-93.6417,2.0,165.0085988,82.0733288,-99999.0,'11111222,11111222,99999999' 
TABS,ioos:station:wmo:42051:1,2017-02-01T10:00:00Z,29.6350,-93.6417,2.0,271.0409326,9.361543676,-99999.0,'11133222,11111222,99999999' 
TABS,ioos:station:wmo:42051:1,2017-02-01T10:30:00Z,29.6350,-93.6417,2.0,77.10382777,30.1094819,-99999.0,'11111222,11111222,99999999' 
TABS,ioos:station:wmo:42051:1,2017-02-01T11:00:00Z,29.6350,-93.6417,2.0,8.928683117,53.99425895,-99999.0,'11111222,11111222,99999999' 
TABS,ioos:station:wmo:42051:1,2017-02-01T11:30:00Z,29.6350,-93.6417,2.0,215.4157162,79.37755413,-99999.0,'11111222,11111222,99999999' 
TABS,ioos:station:wmo:42051:1,2017-02-01T12:00:00Z,29.6350,-93.6417,2.0,69.69522061,15.21549539,-99999.0,'11111222,11111222,99999999' 
TABS,ioos:station:wmo:42051:1,2017-02-01T12:30:00Z,29.6350,-93.6417,2.0,145.0014817,88.43117097,-99999.0,'11111222,11111222,99999999' 
TABS,ioos:station:wmo:42051:1,2017-02-01T13:00:00Z,29.6350,-93.6417,2.0,343.5219515,5.464439587,-99999.0,'11133222,11111222,99999999' 
TABS,ioos:station:wmo:42051:1,2017-02-01T13:30:00Z,29.6350,-93.6417,2.0,312.5311912,3.44681012,-99999.0,'11133222,11111222,99999999' 
TABS,ioos:station:wmo:42051:1,2017-02-01T14:00:00Z,29.6350,-93.6417,2.0,329.5684335,2.586310113,-99999.0,'11133222,11111222,99999999' 
TABS,ioos:station:wmo:42051:1,2017-02-01T14:30:00Z,29.6350,-93.6417,2.0,317.4824295,4.7349868,-99999.0,'11133222,11111222,99999999' 
TABS,ioos:station:wmo:42051:1,2017-02-01T15:00:00Z,29.6350,-93.6417,2.0,352.531484,3.3080659,-99999.0,'11133222,11111222,99999999' 
TABS,ioos:station:wmo:42051:1,2017-02-01T15:30:00Z,29.6350,-93.6417,2.0,65.72561563,1.678392088,-99999.0,'11133222,11111222,99999999' 
TABS,ioos:station:wmo:42051:1,2017-02-01T16:00:00Z,29.6350,-93.6417,2.0,347.1461231,1.528299709,-99999.0,'11133222,11111222,99999999' 
TABS,ioos:station:wmo:42051:1,2017-02-01T16:30:00Z,29.6350,-93.6417,2.0,33.58677757,1.536522047,-99999.0,'11133222,11111222,99999999' 
TABS,ioos:station:wmo:42051:1,2017-02-01T17:00:00Z,29.6350,-93.6417,2.0,39.16062657,1.2509996,-99999.0,'11133222,11111222,99999999' 
TABS,ioos:station:wmo:42051:1,2017-02-01T17:30:00Z,29.6350,-93.6417,2.0,30.94318781,4.745366161,-99999.0,'11133222,11111222,99999999' 
TABS,ioos:station:wmo:42051:1,2017-02-01T18:00:00Z,29.6350,-93.6417,2.0,17.62246648,6.24296404,-99999.0,'11133222,11111222,99999999' 
TABS,ioos:station:wmo:42051:1,2017-02-01T18:30:00Z,29.6350,-93.6417,2.0,16.53034375,16.55418376,-99999.0,'11111222,11111222,99999999' 
TABS,ioos:station:wmo:42051:1,2017-02-01T19:00:00Z,29.6350,-93.6417,2.0,14.12947463,16.42695955,-99999.0,'11111222,11111222,99999999' 
TABS,ioos:station:wmo:42051:1,2017-02-01T19:30:00Z,29.6350,-93.6417,2.0,9.871838291,16.79871721,-99999.0,'11111222,11111222,99999999' 
TABS,ioos:station:wmo:42051:1,2017-02-01T20:00:00Z,29.6350,-93.6417,2.0,14.02218439,19.52169306,-99999.0,'11111222,11111222,99999999' 
TABS,ioos:station:wmo:42051:1,2017-02-01T20:30:00Z,29.6350,-93.6417,2.0,7.759871544,18.81226196,-99999.0,'11111222,11111222,99999999' 
TABS,ioos:station:wmo:42051:1,2017-02-01T21:00:00Z,29.6350,-93.6417,2.0,4.326536051,18.82363674,-99999.0,'11111222,11111222,99999999' 
TABS,ioos:station:wmo:42051:1,2017-02-01T21:30:00Z,29.6350,-93.6417,2.0,4.523993612,16.86253243,-99999.0,'11111222,11111222,99999999' 
TABS,ioos:station:wmo:42051:1,2017-02-01T22:00:00Z,29.6350,-93.6417,2.0,1.825352139,17.26876081,-99999.0,'11111222,11111222,99999999' 
TABS,ioos:station:wmo:42051:1,2017-02-01T22:30:00Z,29.6350,-93.6417,2.0,359.0807688,18.07232691,-99999.0,'11111222,11144222,99999999' 
TABS,ioos:station:wmo:42051:1,2017-02-01T23:00:00Z,29.6350,-93.6417,2.0,3.999003108,20.21922353,-99999.0,'11111222,11111222,99999999' 
TABS,ioos:station:wmo:42051:1,2017-02-02T04:00:00Z,29.6350,-93.6417,2.0,15.52845302,14.71720082,-99999.0,'11111222,11111222,99999999' 
TABS,ioos:station:wmo:42051:1,2017-02-02T04:30:00Z,29.6350,-93.6417,2.0,7.540085335,18.67143808,-99999.0,'11111222,11111222,99999999' 
TABS,ioos:station:wmo:42051:1,2017-02-02T05:00:00Z,29.6350,-93.6417,2.0,29.62092409,13.17127936,-99999.0,'11111222,11111222,99999999' 
TABS,ioos:station:wmo:42051:1,2017-02-02T05:30:00Z,29.6350,-93.6417,2.0,28.71021125,8.722304741,-99999.0,'11133222,11111222,99999999' 
TABS,ioos:station:wmo:42051:1,2017-02-02T06:00:00Z,29.6350,-93.6417,2.0,14.65089396,11.30766112,-99999.0,'11111222,11111222,99999999' 
TABS,ioos:station:wmo:42051:1,2017-02-02T06:30:00Z,29.6350,-93.6417,2.0,15.24805188,13.87856621,-99999.0,'11111222,11111222,99999999' 
TABS,ioos:station:wmo:42051:1,2017-02-02T07:00:00Z,29.6350,-93.6417,2.0,16.89390113,18.3415212,-99999.0,'11111222,11111222,99999999' 
TABS,ioos:station:wmo:42051:1,2017-02-02T07:30:00Z,29.6350,-93.6417,2.0,17.96606284,18.15524442,-99999.0,'11111222,11111222,99999999' 
TABS,ioos:station:wmo:42051:1,2017-02-02T08:00:00Z,29.6350,-93.6417,2.0,30.81438469,17.74501902,-99999.0,'11111222,11111222,99999999' 
TABS,ioos:station:wmo:42051:1,2017-02-02T08:30:00Z,29.6350,-93.6417,2.0,31.71397693,12.70741909,-99999.0,'11111222,11111222,99999999' 
TABS,ioos:station:wmo:42051:1,2017-02-02T09:00:00Z,29.6350,-93.6417,2.0,30.46925085,16.28954266,-99999.0,'11111222,11111222,99999999' 
TABS,ioos:station:wmo:42051:1,2017-02-02T09:30:00Z,29.6350,-93.6417,2.0,37.31650653,17.4525299,-99999.0,'11111222,11111222,99999999' 
TABS,ioos:station:wmo:42051:1,2017-02-02T10:00:00Z,29.6350,-93.6417,2.0,21.49098442,13.70266033,-99999.0,'11111222,11111222,99999999' 
TABS,ioos:station:wmo:42051:1,2017-02-02T10:30:00Z,29.6350,-93.6417,2.0,21.07197877,10.79163102,-99999.0,'11111222,11111222,99999999' 
TABS,ioos:station:wmo:42051:1,2017-02-02T11:00:00Z,29.6350,-93.6417,2.0,24.50053987,10.92357542,-99999.0,'11111222,11111222,99999999' 
TABS,ioos:station:wmo:42051:1,2017-02-02T11:30:00Z,29.6350,-93.6417,2.0,36.48411725,9.502215531,-99999.0,'11133222,11111222,99999999' 
TABS,ioos:station:wmo:42051:1,2017-02-02T12:00:00Z,29.6350,-93.6417,2.0,42.83532114,6.177450931,-99999.0,'11133222,11111222,99999999' 
TABS,ioos:station:wmo:42051:1,2017-02-02T12:30:00Z,29.6350,-93.6417,2.0,41.28814015,3.167412193,-99999.0,'11133222,11111222,99999999' 
TABS,ioos:station:wmo:42051:1,2017-02-02T13:00:00Z,29.6350,-93.6417,2.0,16.1848812,3.946403426,-99999.0,'11133222,11111222,99999999' 
TABS,ioos:station:wmo:42051:1,2017-02-02T13:30:00Z,29.6350,-93.6417,2.0,75.68327436,1.981539805,-99999.0,'11133222,11111222,99999999' 
TABS,ioos:station:wmo:42051:1,2017-02-02T14:00:00Z,29.6350,-93.6417,2.0,62.67617259,5.402814082,-99999.0,'11133222,11111222,99999999' 
TABS,ioos:station:wmo:42051:1,2017-02-02T14:30:00Z,29.6350,-93.6417,2.0,101.6474914,8.321352054,-99999.0,'11133222,11111222,99999999' 
TABS,ioos:station:wmo:42051:1,2017-02-02T15:00:00Z,29.6350,-93.6417,2.0,122.3652998,5.398675764,-99999.0,'11133222,11111222,99999999' 
TABS,ioos:station:wmo:42051:1,2017-02-02T15:30:00Z,29.6350,-93.6417,2.0,127.6415129,4.3063906,-99999.0,'11133222,11111222,99999999' 
TABS,ioos:station:wmo:42051:1,2017-02-02T16:00:00Z,29.6350,-93.6417,2.0,123.3028619,5.336337695,-99999.0,'11133222,11111222,99999999' 
TABS,ioos:station:wmo:42051:1,2017-02-02T16:30:00Z,29.6350,-93.6417,2.0,118.0634632,3.762352987,-99999.0,'11133222,11111222,99999999' 
TABS,ioos:station:wmo:42051:1,2017-02-02T17:00:00Z,29.6350,-93.6417,2.0,93.23725471,4.42706449,-99999.0,'11133222,11111222,99999999' 
TABS,ioos:station:wmo:42051:1,2017-02-02T17:30:00Z,29.6350,-93.6417,2.0,53.83810897,4.694358316,-99999.0,'11133222,11111222,99999999' 
TABS,ioos:station:wmo:42051:1,2017-02-02T18:00:00Z,29.6350,-93.6417,2.0,45.19109001,4.242664257,-99999.0,'11133222,11111222,99999999' 
TABS,ioos:station:wmo:42051:1,2017-02-02T18:30:00Z,29.6350,-93.6417,2.0,76.32872484,4.569463864,-99999.0,'11133222,11111222,99999999' 
TABS,ioos:station:wmo:42051:1,2017-02-02T19:00:00Z,29.6350,-93.6417,2.0,54.43788856,5.433415132,-99999.0,'11133222,11111222,99999999' 
TABS,ioos:station:wmo:42051:1,2017-02-02T19:30:00Z,29.6350,-93.6417,2.0,54.04562032,7.510958661,-99999.0,'11133222,11111222,99999999' 
TABS,ioos:station:wmo:42051:1,2017-02-02T20:00:00Z,29.6350,-93.6417,2.0,46.40449135,5.481724181,-99999.0,'11133222,11111222,99999999' 
TABS,ioos:station:wmo:42051:1,2017-02-02T20:30:00Z,29.6350,-93.6417,2.0,60.96825447,4.883625702,-99999.0,'11133222,11111222,99999999' 
TABS,ioos:station:wmo:42051:1,2017-02-02T21:00:00Z,29.6350,-93.6417,2.0,70.0560308,8.765711608,-99999.0,'11133222,11111222,99999999' 
TABS,ioos:station:wmo:42051:1,2017-02-02T21:30:00Z,29.6350,-93.6417,2.0,77.63656517,7.893047574,-99999.0,'11133222,11111222,99999999' 
TABS,ioos:station:wmo:42051:1,2017-02-02T22:00:00Z,29.6350,-93.6417,2.0,75.87758735,4.836165837,-99999.0,'11133222,11111222,99999999' 
TABS,ioos:station:wmo:42051:1,2017-02-02T22:30:00Z,29.6350,-93.6417,2.0,67.38018795,3.38,-99999.0,'11133222,11111222,99999999' 
TABS,ioos:station:wmo:42051:1,2017-02-02T23:00:00Z,29.6350,-93.6417,2.0,95.93358089,3.579175883,-99999.0,'11133222,11111222,99999999' 
TABS,ioos:station:wmo:42051:1,2017-02-02T23:30:00Z,29.6350,-93.6417,2.0,57.40749474,3.620082872,-99999.0,'11133222,11111222,99999999' 
TABS,ioos:station:wmo:42051:1,2017-02-03T00:00:00Z,29.6350,-93.6417,2.0,151.8098279,3.154124284,-99999.0,'11133222,11111222,99999999' 
TABS,ioos:station:wmo:42051:1,2017-02-03T00:30:00Z,29.6350,-93.6417,2.0,46.20193548,3.034155566,-99999.0,'11133222,11111222,99999999' 
TABS,ioos:station:wmo:42051:1,2017-02-03T01:00:00Z,29.6350,-93.6417,2.0,70.43133545,5.433856825,-99999.0,'11133222,11111222,99999999' 
TABS,ioos:station:wmo:42051:1,2017-02-03T01:30:00Z,29.6350,-93.6417,2.0,63.19257665,6.341545553,-99999.0,'11133222,11111222,99999999' 
TABS,ioos:station:wmo:42051:1,2017-02-03T02:00:00Z,29.6350,-93.6417,2.0,72.29294899,6.970222378,-99999.0,'11133222,11111222,99999999' 
TABS,ioos:station:wmo:42051:1,2017-02-03T02:30:00Z,29.6350,-93.6417,2.0,101.4345293,7.213168513,-99999.0,'11133222,11111222,99999999' 
TABS,ioos:station:wmo:42051:1,2017-02-03T03:00:00Z,29.6350,-93.6417,2.0,102.9502644,6.782514283,-99999.0,'11133222,11111222,99999999' 
TABS,ioos:station:wmo:42051:1,2017-02-03T03:30:00Z,29.6350,-93.6417,2.0,119.6255012,10.7215857,-99999.0,'11111222,11111222,99999999' 
TABS,ioos:station:wmo:42051:1,2017-02-03T04:00:00Z,29.6350,-93.6417,2.0,160.5824009,11.24987555,-99999.0,'11111222,11111222,99999999' 
TABS,ioos:station:wmo:42051:1,2017-02-03T04:30:00Z,29.6350,-93.6417,2.0,167.3287651,10.48536599,-99999.0,'11111222,11111222,99999999' 
TABS,ioos:station:wmo:42051:1,2017-02-03T05:00:00Z,29.6350,-93.6417,2.0,182.9069769,15.97055415,-99999.0,'11111222,11111222,99999999' 
TABS,ioos:station:wmo:42051:1,2017-02-03T05:30:00Z,29.6350,-93.6417,2.0,197.5596082,16.77151454,-99999.0,'11111222,11111222,99999999' 
TABS,ioos:station:wmo:42051:1,2017-02-03T06:00:00Z,29.6350,-93.6417,2.0,207.0572792,14.047498,-99999.0,'11111222,11111222,99999999' 
TABS,ioos:station:wmo:42051:1,2017-02-03T06:30:00Z,29.6350,-93.6417,2.0,203.4181852,11.97654792,-99999.0,'11111222,11111222,99999999' 
TABS,ioos:station:wmo:42051:1,2017-02-03T07:00:00Z,29.6350,-93.6417,2.0,220.3904693,9.151273135,-99999.0,'11133222,11111222,99999999' 
TABS,ioos:station:wmo:42051:1,2017-02-03T07:30:00Z,29.6350,-93.6417,2.0,218.825485,5.391140881,-99999.0,'11133222,11111222,99999999' 
TABS,ioos:station:wmo:42051:1,2017-02-03T08:00:00Z,29.6350,-93.6417,2.0,190.7128875,1.129690223,-99999.0,'11133222,11111222,99999999' 
TABS,ioos:station:wmo:42051:1,2017-02-03T08:30:00Z,29.6350,-93.6417,2.0,224.1904776,5.006815355,-99999.0,'11133222,11111222,99999999' 
TABS,ioos:station:wmo:42051:1,2017-02-03T09:00:00Z,29.6350,-93.6417,2.0,243.8352523,3.197655391,-99999.0,'11133222,11111222,99999999' 
TABS,ioos:station:wmo:42051:1,2017-02-03T09:30:00Z,29.6350,-93.6417,2.0,290.2190436,4.571706465,-99999.0,'11133222,11111222,99999999' 
TABS,ioos:station:wmo:42051:1,2017-02-03T10:00:00Z,29.6350,-93.6417,2.0,276.8703972,2.508007177,-99999.0,'11133222,11111222,99999999' 
TABS,ioos:station:wmo:42051:1,2017-02-03T10:30:00Z,29.6350,-93.6417,2.0,290.7861903,4.085939304,-99999.0,'11133222,11111222,99999999' 
TABS,ioos:station:wmo:42051:1,2017-02-03T11:00:00Z,29.6350,-93.6417,2.0,315.849977,6.675822047,-99999.0,'11133222,11111222,99999999' 
TABS,ioos:station:wmo:42051:1,2017-02-03T11:30:00Z,29.6350,-93.6417,2.0,283.0811291,3.490573019,-99999.0,'11133222,11111222,99999999' 
TABS,ioos:station:wmo:42051:1,2017-02-03T12:00:00Z,29.6350,-93.6417,2.0,297.5471242,3.654271473,-99999.0,'11133222,11111222,99999999' 
TABS,ioos:station:wmo:42051:1,2017-02-03T12:30:00Z,29.6350,-93.6417,2.0,298.6033929,6.162028887,-99999.0,'11133222,11111222,99999999' 
TABS,ioos:station:wmo:42051:1,2017-02-03T13:00:00Z,29.6350,-93.6417,2.0,307.5460343,7.630530781,-99999.0,'11133222,11111222,99999999' 
TABS,ioos:station:wmo:42051:1,2017-02-03T13:30:00Z,29.6350,-93.6417,2.0,264.9801782,17.48706093,-99999.0,'11111222,11111222,99999999' 
TABS,ioos:station:wmo:42051:1,2017-02-03T14:00:00Z,29.6350,-93.6417,2.0,265.6745288,19.09437614,-99999.0,'11111222,11111222,99999999' 
TABS,ioos:station:wmo:42051:1,2017-02-03T14:30:00Z,29.6350,-93.6417,2.0,259.1544673,19.82407123,-99999.0,'11111222,11111222,99999999' 
TABS,ioos:station:wmo:42051:1,2017-02-03T15:00:00Z,29.6350,-93.6417,2.0,260.949074,25.61895587,-99999.0,'11111222,11111222,99999999' 
TABS,ioos:station:wmo:42051:1,2017-02-03T15:30:00Z,29.6350,-93.6417,2.0,265.4367502,20.61533652,-99999.0,'11111222,11111222,99999999' 
TABS,ioos:station:wmo:42051:1,2017-02-03T16:00:00Z,29.6350,-93.6417,2.0,265.5845154,24.16169903,-99999.0,'11111222,11111222,99999999' 
TABS,ioos:station:wmo:42051:1,2017-02-03T16:30:00Z,29.6350,-93.6417,2.0,273.8366601,20.62621633,-99999.0,'11111222,11111222,99999999' 
TABS,ioos:station:wmo:42051:1,2017-02-03T17:00:00Z,29.6350,-93.6417,2.0,265.8933606,21.78592435,-99999.0,'11111222,11111222,99999999' 
TABS,ioos:station:wmo:42051:1,2017-02-03T17:30:00Z,29.6350,-93.6417,2.0,265.0357172,21.1493215,-99999.0,'11111222,11111222,99999999' 
TABS,ioos:station:wmo:42051:1,2017-02-03T18:00:00Z,29.6350,-93.6417,2.0,270.0902729,19.13002352,-99999.0,'11111222,11111222,99999999' 
TABS,ioos:station:wmo:42051:1,2017-02-03T18:30:00Z,29.6350,-93.6417,2.0,266.7855586,17.65777449,-99999.0,'11111222,11111222,99999999' 
TABS,ioos:station:wmo:42051:1,2017-02-03T19:00:00Z,29.6350,-93.6417,2.0,270.94764,17.54239721,-99999.0,'11111222,11111222,99999999' 
TABS,ioos:station:wmo:42051:1,2017-02-03T19:30:00Z,29.6350,-93.6417,2.0,281.7013714,16.66633733,-99999.0,'11111222,11111222,99999999' 
TABS,ioos:station:wmo:42051:1,2017-02-03T20:00:00Z,29.6350,-93.6417,2.0,279.4912717,16.49579643,-99999.0,'11111222,11111222,99999999' 
TABS,ioos:station:wmo:42051:1,2017-02-03T20:30:00Z,29.6350,-93.6417,2.0,284.8927594,16.06977909,-99999.0,'11111222,11111222,99999999' 
TABS,ioos:station:wmo:42051:1,2017-02-03T21:00:00Z,29.6350,-93.6417,2.0,284.7558198,17.19713057,-99999.0,'11111222,11111222,99999999' 
TABS,ioos:station:wmo:42051:1,2017-02-03T21:30:00Z,29.6350,-93.6417,2.0,288.6778978,18.67341693,-99999.0,'11111222,11111222,99999999' 
TABS,ioos:station:wmo:42051:1,2017-02-03T22:00:00Z,29.6350,-93.6417,2.0,285.360455,19.63122258,-99999.0,'11111222,11111222,99999999' 
TABS,ioos:station:wmo:42051:1,2017-02-03T22:30:00Z,29.6350,-93.6417,2.0,280.7049311,19.48914826,-99999.0,'11111222,11111222,99999999' 
TABS,ioos:station:wmo:42051:1,2017-02-03T23:00:00Z,29.6350,-93.6417,2.0,282.2101291,21.23022845,-99999.0,'11111222,11111222,99999999' 
TABS,ioos:station:wmo:42051:1,2017-02-03T23:30:00Z,29.6350,-93.6417,2.0,272.1889984,20.42489902,-99999.0,'11111222,11111222,99999999' 
TABS,ioos:station:wmo:42051:1,2017-02-04T00:00:00Z,29.6350,-93.6417,2.0,283.9339881,20.30754047,-99999.0,'11111222,11111222,99999999' 
TABS,ioos:station:wmo:42051:1,2017-02-04T00:30:00Z,29.6350,-93.6417,2.0,275.6064003,20.16645234,-99999.0,'11111222,11111222,99999999' 
TABS,ioos:station:wmo:42051:1,2017-02-04T01:00:00Z,29.6350,-93.6417,2.0,274.8406344,20.50311684,-99999.0,'11111222,11111222,99999999' 
TABS,ioos:station:wmo:42051:1,2017-02-04T01:30:00Z,29.6350,-93.6417,2.0,270.4048541,21.25052941,-99999.0,'11111222,11111222,99999999' 
TABS,ioos:station:wmo:42051:1,2017-02-04T02:00:00Z,29.6350,-93.6417,2.0,264.5033138,19.41928166,-99999.0,'11111222,11111222,99999999' 
TABS,ioos:station:wmo:42051:1,2017-02-04T02:30:00Z,29.6350,-93.6417,2.0,259.5679648,17.78393938,-99999.0,'11111222,11111222,99999999' 
TABS,ioos:station:wmo:42051:1,2017-02-04T03:00:00Z,29.6350,-93.6417,2.0,251.3375255,16.7507164,-99999.0,'11111222,11111222,99999999' 
TABS,ioos:station:wmo:42051:1,2017-02-04T03:30:00Z,29.6350,-93.6417,2.0,254.8712235,17.05092666,-99999.0,'11111222,11111222,99999999' 
TABS,ioos:station:wmo:42051:1,2017-02-04T04:00:00Z,29.6350,-93.6417,2.0,244.3126592,22.47064975,-99999.0,'11111222,11111222,99999999' 
TABS,ioos:station:wmo:42051:1,2017-02-04T04:30:00Z,29.6350,-93.6417,2.0,238.3989565,22.06122617,-99999.0,'11111222,11111222,99999999' 
TABS,ioos:station:wmo:42051:1,2017-02-04T05:00:00Z,29.6350,-93.6417,2.0,243.546617,20.58528115,-99999.0,'11111222,11111222,99999999' 
TABS,ioos:station:wmo:42051:1,2017-02-04T05:30:00Z,29.6350,-93.6417,2.0,255.8750583,31.47146009,-99999.0,'11111222,11111222,99999999' 
TABS,ioos:station:wmo:42051:1,2017-02-04T06:00:00Z,29.6350,-93.6417,2.0,251.2222019,35.4466035,-99999.0,'11111222,11111222,99999999' 
TABS,ioos:station:wmo:42051:1,2017-02-04T06:30:00Z,29.6350,-93.6417,2.0,257.0049927,31.35291055,-99999.0,'11111222,11111222,99999999' 
TABS,ioos:station:wmo:42051:1,2017-02-04T07:00:00Z,29.6350,-93.6417,2.0,257.0732553,25.79365232,-99999.0,'11111222,11111222,99999999' 
TABS,ioos:station:wmo:42051:1,2017-02-04T07:30:00Z,29.6350,-93.6417,2.0,262.7230441,23.44884859,-99999.0,'11111222,11111222,99999999' 
TABS,ioos:station:wmo:42051:1,2017-02-04T08:00:00Z,29.6350,-93.6417,2.0,258.9167498,20.28837352,-99999.0,'11111222,11111222,99999999' 
TABS,ioos:station:wmo:42051:1,2017-02-04T08:30:00Z,29.6350,-93.6417,2.0,267.0088503,21.84975972,-99999.0,'11111222,11111222,99999999' 
TABS,ioos:station:wmo:42051:1,2017-02-04T09:00:00Z,29.6350,-93.6417,2.0,262.1191101,23.04765715,-99999.0,'11111222,11111222,99999999' 
TABS,ioos:station:wmo:42051:1,2017-02-04T09:30:00Z,29.6350,-93.6417,2.0,274.0089039,21.17179256,-99999.0,'11111222,11111222,99999999' 
TABS,ioos:station:wmo:42051:1,2017-02-04T10:00:00Z,29.6350,-93.6417,2.0,263.4764931,19.71764945,-99999.0,'11111222,11111222,99999999' 
TABS,ioos:station:wmo:42051:1,2017-02-04T10:30:00Z,29.6350,-93.6417,2.0,266.6841202,25.07196442,-99999.0,'11111222,11111222,99999999' 
TABS,ioos:station:wmo:42051:1,2017-02-04T11:00:00Z,29.6350,-93.6417,2.0,272.1535759,21.8254095,-99999.0,'11111222,11111222,99999999' 
TABS,ioos:station:wmo:42051:1,2017-02-04T11:30:00Z,29.6350,-93.6417,2.0,272.1778247,24.4776735,-99999.0,'11111222,11111222,99999999' 
TABS,ioos:station:wmo:42051:1,2017-02-04T12:00:00Z,29.6350,-93.6417,2.0,273.3239615,25.87351735,-99999.0,'11111222,11111222,99999999' 
TABS,ioos:station:wmo:42051:1,2017-02-04T12:30:00Z,29.6350,-93.6417,2.0,265.6025355,26.60831637,-99999.0,'11111222,11111222,99999999' 
TABS,ioos:station:wmo:42051:1,2017-02-04T13:00:00Z,29.6350,-93.6417,2.0,269.6717776,24.47040049,-99999.0,'11111222,11111222,99999999' 
TABS,ioos:station:wmo:42051:1,2017-02-04T13:30:00Z,29.6350,-93.6417,2.0,277.0060077,34.51770126,-99999.0,'11111222,11111222,99999999' 
TABS,ioos:station:wmo:42051:1,2017-02-04T14:00:00Z,29.6350,-93.6417,2.0,270.2946445,29.21038514,-99999.0,'11111222,11111222,99999999' 
TABS,ioos:station:wmo:42051:1,2017-02-04T14:30:00Z,29.6350,-93.6417,2.0,268.9213437,28.16498713,-99999.0,'11111222,11111222,99999999' 
TABS,ioos:station:wmo:42051:1,2017-02-04T15:00:00Z,29.6350,-93.6417,2.0,267.9750458,25.47590234,-99999.0,'11111222,11111222,99999999' 
TABS,ioos:station:wmo:42051:1,2017-02-04T15:30:00Z,29.6350,-93.6417,2.0,271.7261978,26.23189852,-99999.0,'11111222,11111222,99999999' 
TABS,ioos:station:wmo:42051:1,2017-02-04T16:00:00Z,29.6350,-93.6417,2.0,267.7585117,24.03838597,-99999.0,'11111222,11111222,99999999' 
TABS,ioos:station:wmo:42051:1,2017-02-04T16:30:00Z,29.6350,-93.6417,2.0,262.2127645,26.20160491,-99999.0,'11111222,11111222,99999999' 
TABS,ioos:station:wmo:42051:1,2017-02-04T17:00:00Z,29.6350,-93.6417,2.0,262.0493268,25.23252266,-99999.0,'11111222,11111222,99999999' 
TABS,ioos:station:wmo:42051:1,2017-02-04T17:30:00Z,29.6350,-93.6417,2.0,263.513353,28.59302362,-99999.0,'11111222,11111222,99999999' 
TABS,ioos:station:wmo:42051:1,2017-02-04T18:00:00Z,29.6350,-93.6417,2.0,266.3759391,23.41681661,-99999.0,'11111222,11111222,99999999' 
TABS,ioos:station:wmo:42051:1,2017-02-04T18:30:00Z,29.6350,-93.6417,2.0,267.112652,27.99553,-99999.0,'11111222,11111222,99999999' 
TABS,ioos:station:wmo:42051:1,2017-02-04T19:00:00Z,29.6350,-93.6417,2.0,274.2658005,20.43660441,-99999.0,'11111222,11111222,99999999' 
TABS,ioos:station:wmo:42051:1,2017-02-04T19:30:00Z,29.6350,-93.6417,2.0,257.3752308,21.45879074,-99999.0,'11111222,11111222,99999999' 
TABS,ioos:station:wmo:42051:1,2017-02-04T20:00:00Z,29.6350,-93.6417,2.0,260.9145324,21.72250906,-99999.0,'11111222,11111222,99999999' 
TABS,ioos:station:wmo:42051:1,2017-02-04T20:30:00Z,29.6350,-93.6417,2.0,260.2658701,23.59973941,-99999.0,'11111222,11111222,99999999' 